Location: Unspecified
(0.0000°N, 0.0000°E)
Time: 00:10:29
(UTC+00:00)

Envisat - Pass Details

Date: 04 December 2022
Orbit: 763 x 765 km, 98.2° (Epoch: 02 December)

Event Time Altitude Azimuth Distance (km) Brightness Sun altitude
Exits shadow 04:02:19 72° 285° (WNW) 804 2.8 -24.8°
Maximum altitude 04:02:20 72° 282° (WNW) 804 2.8 -24.8°
Drops below altitude 10° 04:07:23 10° 198° (SSW) 2,300 5.5 -23.6°
Sets 04:09:42 0° 196° (SSW) 3,229 6.3 -23.1°
